(280118) = 2002 JV1

Discovered at Desert Eagle on 2002-05-04 by W. K. Y. Yeung.

Orbit

Orbit type: Main Belt

Note: WebGL enabled browser required.

epoch2024-03-31.0
epoch JD2460400.5
perihelion date2019-05-15.09313
perihelion JD2458618.59313
argument of perihelion (°)355.22445
ascending node (°)225.57333
inclination (°)19.73902
eccentricity0.1431638
perihelion distance (AU)2.7204389
Tisserand w.r.t. Jupiter3.1
ΔV w.r.t. Earth (km/sec)11.9
semimajor axis (AU)3.1749814
mean anomaly (°)310.43956
mean daily motion (°/day)0.17421760
aphelion distance (AU)3.630
period (years)5.66
P-vector [x]-0.75352686
P-vector [y]-0.59143202
P-vector [z]-0.28706346
Q-vector [x]0.61157422
Q-vector [y]-0.79082388
Q-vector [z]0.02397017
absolute magnitude14.97
phase slope0.15
uncertainty0
referenceMPEC 2024-F14
observations used509
oppositions15
arc length (days)7988
first opposition used2002
last opposition used2024
residual rms (arc-secs)0.76
perturbers coarse indicatorM-v
perturbers precise indicator003Ek
first observation date used2002-05-04.0
last observation date used2024-03-17.0
computer nameMPCLINUX
JD of orbit computation2456406.160431
perihelion JD uncertainty (days)2.5195E-04
argument of perihelion uncertainty (°)4.3233E-05
ascending node uncertainty (°)2.3241E-05
inclination uncertainty (°)2.2367E-05
eccentricity uncertainty 1.9290E-07
perihelion distance uncertainty (AU)6.3163E-07
Minimum Orbit Intersection Distances (in AU)
for orbit epoch: 2460400.5, reference: E2024-G95
Mercury2.26938
Venus1.9983
Earth1.71245
Mars1.14378
Jupiter1.35825
Saturn5.51189
Uranus15.6634
Neptune26.2036

Observations

489 total observations over interval: 2002 05 04.27740 – 2024 03 17.380747
These data are available for download (format description).

Date (UT) J2000 RA J2000 Dec Magn Location Ref
2002 05 04.27740 14 23 54.71 -17 21 28.6 19.6 V 333 – Desert Eagle Observatory MPS 55247
2002 05 04.27867 14 23 54.59 -17 21 28.3 19.5 V 333 – Desert Eagle Observatory MPS 55247
2002 05 04.30125 14 23 53.72 -17 21 12.2 19.3 V 333 – Desert Eagle Observatory MPS 55247
2002 05 04.30251 14 23 53.56 -17 21 11.5 19.2 V 333 – Desert Eagle Observatory MPS 55247
2002 05 04.32480 14 23 52.71 -17 20 56.3 19.5 V 333 – Desert Eagle Observatory MPS 55247
2002 05 04.32608 14 23 52.60 -17 20 56.0 19.6 V 333 – Desert Eagle Observatory MPS 55247
2002 05 05.29647 14 23 12.22 -17 10 07.6 19.9 V 333 – Desert Eagle Observatory MPS 55247
2002 05 05.37903 14 23 08.68 -17 09 11.8 19.7 V 333 – Desert Eagle Observatory MPS 55247
2002 05 09.28573 14 20 30.26 -16 25 44.6 18.1   704 – Lincoln Laboratory ETS, New Mexico MPS 55247
2002 05 09.30994 14 20 29.31 -16 25 28.4 18.6   704 – Lincoln Laboratory ETS, New Mexico MPS 55247
2002 05 09.32209 14 20 28.76 -16 25 20.5 18.8   704 – Lincoln Laboratory ETS, New Mexico MPS 55247
2002 05 09.33473 14 20 28.25 -16 25 12.0 18.4   704 – Lincoln Laboratory ETS, New Mexico MPS 55247
2002 05 11.22504 14 19 14.68 -16 04 15.9 18.4   704 – Lincoln Laboratory ETS, New Mexico MPS 55247
2002 05 11.23965 14 19 14.08 -16 04 06.5 18.4   704 – Lincoln Laboratory ETS, New Mexico MPS 55247
2002 05 11.25437 14 19 13.48 -16 03 56.6 18.0   704 – Lincoln Laboratory ETS, New Mexico MPS 55247
2002 05 11.26899 14 19 12.93 -16 03 46.7 19.1   704 – Lincoln Laboratory ETS, New Mexico MPS 55247
2002 05 11.28363 14 19 12.31 -16 03 37.0 18.6   704 – Lincoln Laboratory ETS, New Mexico MPS 55247
2002 05 13.22051 14 17 59.45 -15 42 24.2 18.9   704 – Lincoln Laboratory ETS, New Mexico MPS 55247
2002 05 13.23523 14 17 58.90 -15 42 14.2 18.6   704 – Lincoln Laboratory ETS, New Mexico MPS 55247
2002 05 13.24995 14 17 58.26 -15 42 04.3 19.1   704 – Lincoln Laboratory ETS, New Mexico MPS 55247
2002 05 13.26478 14 17 57.79 -15 41 55.9 19.2   704 – Lincoln Laboratory ETS, New Mexico MPS 55247
2002 05 13.27951 14 17 57.24 -15 41 45.9 19.2   704 – Lincoln Laboratory ETS, New Mexico MPS 55247
2002 05 14.24298 14 17 21.97 -15 31 14.8 18.3   704 – Lincoln Laboratory ETS, New Mexico MPS 55247
2002 05 14.27249 14 17 20.90 -15 30 55.9 18.6   704 – Lincoln Laboratory ETS, New Mexico MPS 55247
2002 05 14.28730 14 17 20.27 -15 30 45.4 18.7   704 – Lincoln Laboratory ETS, New Mexico MPS 55247
2002 05 18.28958 14 15 02.54 -14 48 01.3 18.5   644 – Palomar Mountain/NEAT MPS 55247
2002 05 18.31325 14 15 01.73 -14 47 46.1 18.4   644 – Palomar Mountain/NEAT MPS 55247
2002 05 18.34244 14 15 00.74 -14 47 27.6 18.5   644 – Palomar Mountain/NEAT MPS 55247
2002 05 29.34328 14 10 08.28 -12 59 30.5 20.2   608 – Haleakala-AMOS MPS 57603
2002 05 29.35365 14 10 08.00 -12 59 24.9 20.1   608 – Haleakala-AMOS MPS 57603
2002 05 29.36446 14 10 07.81 -12 59 19.4 20.3   608 – Haleakala-AMOS MPS 57603
2002 06 06.17315 14 08 09.16 -11 54 03.6 19.9 V 291 – LPL/Spacewatch II MPS 57603
2002 06 06.19363 14 08 08.94 -11 53 54.4 19.9 V 291 – LPL/Spacewatch II MPS 57603
2002 06 06.21472 14 08 08.66 -11 53 45.2 19.7 V 291 – LPL/Spacewatch II MPS 57603
2002 06 06.23154 14 08 08.40 -11 53 37.7 19.1   704 – Lincoln Laboratory ETS, New Mexico MPS 57603
2002 06 06.24549 14 08 08.27 -11 53 30.3 19.3   704 – Lincoln Laboratory ETS, New Mexico MPS 57603
2002 06 06.25948 14 08 08.11 -11 53 24.8 19.1   704 – Lincoln Laboratory ETS, New Mexico MPS 57603
2002 06 06.27343 14 08 07.98 -11 53 18.2 18.8   704 – Lincoln Laboratory ETS, New Mexico MPS 57603
2002 06 06.28738 14 08 07.74 -11 53 10.7 19.3   704 – Lincoln Laboratory ETS, New Mexico MPS 57603
2002 06 08.23907 14 07 50.99 -11 38 37.3 18.8   704 – Lincoln Laboratory ETS, New Mexico MPS 57603
2002 06 08.26669 14 07 50.77 -11 38 25.6 19.5   704 – Lincoln Laboratory ETS, New Mexico MPS 57603
2002 06 08.28024 14 07 50.69 -11 38 19.8 19.8   704 – Lincoln Laboratory ETS, New Mexico MPS 57603
2002 06 08.29366 14 07 50.56 -11 38 13.0 19.1   704 – Lincoln Laboratory ETS, New Mexico MPS 57603
2003 07 20.36653 20 56 04.55 +11 50 27.1 19.3   644 – Palomar Mountain/NEAT MPS 383970
2003 07 20.39350 20 56 03.41 +11 50 28.4 19.4   644 – Palomar Mountain/NEAT MPS 383970
2003 07 20.41606 20 56 02.45 +11 50 29.1 19.3   644 – Palomar Mountain/NEAT MPS 383970
2005 12 22.23490 04 59 37.89 +07 30 15.5 20.0 V 703 – Catalina Sky Survey MPS 280021
2005 12 22.24228 04 59 37.53 +07 30 13.7 20.4 V 703 – Catalina Sky Survey MPS 280021
2005 12 22.24969 04 59 37.17 +07 30 12.2 19.4 V 703 – Catalina Sky Survey MPS 280021
2005 12 22.25709 04 59 36.74 +07 30 10.1 20.3 V 703 – Catalina Sky Survey MPS 280021
2008 05 06.46561 17 06 57.78 -12 24 48.0 18.3 V G96 – Mt. Lemmon Survey MPS 280021
2008 05 06.46798 17 06 57.70 -12 24 47.0 18.4 V G96 – Mt. Lemmon Survey MPS 280021
2008 05 06.47039 17 06 57.63 -12 24 45.9 18.4 V G96 – Mt. Lemmon Survey MPS 280021
2008 05 06.47290 17 06 57.56 -12 24 44.7 18.4 V G96 – Mt. Lemmon Survey MPS 280021
2008 05 13.32409 17 03 07.96 -11 21 22.5   704 – Lincoln Laboratory ETS, New Mexico MPS 407529
2008 05 13.33463 17 03 07.57 -11 21 16.9   704 – Lincoln Laboratory ETS, New Mexico MPS 407529
2008 05 13.34515 17 03 07.18 -11 21 10.8   704 – Lincoln Laboratory ETS, New Mexico MPS 407529
2008 05 13.35566 17 03 06.75 -11 21 05.1   704 – Lincoln Laboratory ETS, New Mexico MPS 407529
2008 06 02.26518 16 48 31.50 -08 29 22.6   704 – Lincoln Laboratory ETS, New Mexico MPS 407529
2008 06 02.27551 16 48 30.99 -08 29 17.9   704 – Lincoln Laboratory ETS, New Mexico MPS 407529
2008 06 02.28575 16 48 30.52 -08 29 13.4   704 – Lincoln Laboratory ETS, New Mexico MPS 407529
2008 06 02.29598 16 48 29.97 -08 29 08.5   704 – Lincoln Laboratory ETS, New Mexico MPS 407529
2008 06 02.30621 16 48 29.47 -08 29 04.4   704 – Lincoln Laboratory ETS, New Mexico MPS 407529
2008 06 03.30189 16 47 42.28 -08 21 27.4 18.1 V G96 – Mt. Lemmon Survey MPS 280021
2008 06 03.30765 16 47 42.00 -08 21 24.7 18.1 V G96 – Mt. Lemmon Survey MPS 280021
2008 06 03.31344 16 47 41.74 -08 21 22.1 18.1 V G96 – Mt. Lemmon Survey MPS 280021
2008 06 03.31926 16 47 41.46 -08 21 19.4 18.2 V G96 – Mt. Lemmon Survey MPS 280021
2009 08 21.26209 22 19 55.15 +17 13 21.7 19.7   704 – Lincoln Laboratory ETS, New Mexico MPS 292578
2009 08 21.29954 22 19 53.50 +17 13 12.6 20.0   704 – Lincoln Laboratory ETS, New Mexico MPS 292578
2009 08 21.31204 22 19 52.94 +17 13 10.4 20.5   704 – Lincoln Laboratory ETS, New Mexico MPS 292578
2010 08 08.70623 02 44 39.84 +22 20 31.5   C51 – WISE MPS 344794
2010 08 08.83840 02 44 43.88 +22 20 41.0   C51 – WISE MPS 344794
2010 08 08.83853 02 44 43.87 +22 20 41.2   C51 – WISE MPS 344795
2010 08 08.97071 02 44 48.10 +22 20 48.5   C51 – WISE MPS 344795
2010 08 09.03692 02 44 49.98 +22 20 53.7   C51 – WISE MPS 344795
2010 08 09.23532 02 44 56.28 +22 21 07.4   C51 – WISE MPS 344795
2010 08 09.30153 02 44 58.29 +22 21 08.2   C51 – WISE MPS 344795
2010 08 09.43371 02 45 02.31 +22 21 19.3   C51 – WISE MPS 344795
2010 08 09.43384 02 45 02.29 +22 21 18.8   C51 – WISE MPS 344795
2010 08 12.39297 02 46 28.81 +22 23 54.9 21.1 V 291 – LPL/Spacewatch II MPS 343702
2010 08 12.39706 02 46 28.91 +22 23 54.9 21.0 V 291 – LPL/Spacewatch II MPS 343702
2010 08 12.40376 02 46 29.08 +22 23 55.2 21.1 V 291 – LPL/Spacewatch II MPS 343702
2010 10 08.402412 02 43 41.712 +20 18 43.17 20.69 w F51 – Pan-STARRS 1, Haleakala MPS 365411
2010 10 08.420614 02 43 41.079 +20 18 37.21 20.77 w F51 – Pan-STARRS 1, Haleakala MPS 365411
2010 10 08.438844 02 43 40.444 +20 18 31.26 20.79 w F51 – Pan-STARRS 1, Haleakala MPS 365411
2010 10 08.457935 02 43 39.776 +20 18 24.98 20.82 w F51 – Pan-STARRS 1, Haleakala MPS 365411
2010 10 14.557362 02 39 58.988 +19 42 44.31 20.06 i F51 – Pan-STARRS 1, Haleakala MPS 365411
2010 10 14.568873 02 39 58.530 +19 42 39.86 20.11 i F51 – Pan-STARRS 1, Haleakala MPS 365411
2010 10 30.16605 02 29 03.37 +17 56 11.5 20.2 V 691 – Steward Observatory, Kitt Peak-Spacewatch MPS 353695
2010 10 30.18377 02 29 02.55 +17 56 03.6 20.2 V 691 – Steward Observatory, Kitt Peak-Spacewatch MPS 353695
2010 10 30.20149 02 29 01.74 +17 55 56.5 20.1 V 691 – Steward Observatory, Kitt Peak-Spacewatch MPS 353695
